Home   Weather   Florianópolis   Past weeks
Flag for Brazil

Past Weather in Florianópolis, Santa Catarina, Brazil — Yesterday and Last 2 Weeks

Now
70 °F

Light rain. Partly cloudy.


Feels Like: 70 °F
Forecast: 68 / 60 °F
Wind: 9 mph from North

Location: Florianopolis Aeroporto

Current Time: Sep 19, 2019 at 10:36:18 pm

Latest Report: Sep 19, 2019 at 10:00 pm


Visibility: 3 mi

Pressure: 29.74 "Hg

Humidity: 94%

Dew Point: 68 °F

Location of FlorianópolisLocation

Past Weather in Florianópolis — Graph

°F

Florianópolis Temperature Yesterday

Maximum temperature yesterday: 70 °F (at 12:00 pm)
Minimum temperature yesterday: 63 °F (at 8:00 pm)
Average temperature yesterday: 65 °F

High & Low Weather Summary for the Past Weeks

 TemperatureHumidityPressure
High79 °F (Sep 10, 12:00 pm)100% (Sep 6, 12:00 pm)30.45 "Hg (Sep 6, 12:00 pm)
Low55 °F (Sep 5, 4:00 am)54% (Sep 10, 3:00 pm)29.68 "Hg (Sep 18, 4:00 am)
Average66 °F85%30.02 "Hg
* Reported Sep 4 9:00 pm — Sep 19 9:00 pm, Florianópolis. Weather by CustomWeather, © 2019

Note: Actual official high and low records may vary slightly from our data, if they occured in-between our weather recording intervals... More about our weather records

Advertising

Florianópolis Weather History for the Previous 24 Hours

Scroll right to see more
 ConditionsComfort  
Time TempWeatherWind HumidityBarometerVisibility
9:00 pm
Thu, Sep 19
70 °FLight rain. Partly cloudy.12 mph88%29.77 "Hg3 mi
8:00 pm68 °FLight rain. Passing clouds.16 mph94%29.74 "Hg3 mi
7:00 pm68 °FLight rain. Passing clouds.14 mph94%29.71 "HgN/A
6:00 pm68 °FLight rain. Partly sunny.9 mph88%29.71 "Hg3 mi
5:00 pm68 °FPartly sunny.13 mph88%29.71 "HgN/A
4:00 pm68 °FPartly sunny.14 mph88%29.71 "HgN/A
3:00 pm68 °FPartly sunny.9 mph88%29.68 "HgN/A
2:00 pm68 °FMostly cloudy.9 mph83%29.74 "HgN/A
1:00 pm70 °FMostly cloudy.13 mph83%29.77 "HgN/A
12:00 pm66 °FMostly cloudy.6 mph88%29.80 "HgN/A
11:00 am66 °FMostly cloudy.6 mph88%29.83 "HgN/A
10:00 am64 °FMostly cloudy.6 mph94%29.83 "HgN/A
9:00 am64 °FMostly cloudy.3 mph94%29.86 "HgN/A
8:00 am63 °FMostly cloudy.5 mph100%29.86 "HgN/A
7:00 am63 °FPartly sunny.3 mph94%29.86 "Hg5 mi
6:10 am63 °FFog.3 mph94%29.83 "Hg2 mi
6:00 am63 °FFog.2 mph94%29.83 "Hg3 mi
5:00 am63 °FFog.2 mph94%29.83 "Hg3 mi
4:00 am63 °FFog.1 mph94%29.83 "Hg3 mi
3:00 am63 °FFog.1 mph94%29.86 "Hg3 mi
2:00 am63 °FPassing clouds.2 mph94%29.86 "HgN/A
1:00 am63 °FLight rain. Partly cloudy.2 mph94%29.89 "Hg5 mi
12:00 am63 °FLight rain. Partly cloudy.2 mph94%29.89 "Hg5 mi
11:00 pm
Wed, Sep 18
63 °FPartly cloudy.6 mph94%29.89 "HgN/A
10:00 pm63 °FPassing clouds.6 mph94%29.89 "HgN/A
Weather by CustomWeather, © 2019

See weather overview